IRIDIUM 33 DEB, 34651

Orbit data source: Space-Track

IRIDIUM 33 DEB, 34651 is space debris in LEO originally from a launch on Sun, 14 Sep 1997 UTC launched from the Tyuratam Missile And Space Complex (TTMTR). The debris from Iridium 33, an American commercial communications satellite, has been tracked extensively since its accidental collision with the defunct Russian satellite Cosmos 2251 in 2009. This event, occurring at high speed in low Earth orbit (LEO), generated thousands of pieces of space debris, significantly increasing the risk of further collisions. The Iridium 33 debris cloud has impacted space traffic management and orbital debris mitigation strategies, making it a subject of ongoing study in space situational awareness.

Loading next visibility...
Identifier
34651, 1997-051KC
Orbit
LEO
Country
Flag of USUS
Related business
Manufacturer
Unknown
Mission
Spacecraft
Bus & Motor
Unknown
Mass
Unknown
Launch date (UTC)
1997-09-14 (28 years ago)
Launch vehicle
Unknown
Launch site
Tyuratam Missile And Space Complex (TTMTR)
Object type
Payload
Rocket body
Debris
Shape & HBR
Unknown shape, 0.1 m
Radar Cross Section
Small (<0.1 m²)

Expand to show TLE details & history
Last TLE update: 7 hours ago

TLE from 7 hours ago
0 IRIDIUM 33 DEB
1 34651U 97051KC  25305.54218691  .00005660  00000-0  21639-2 0  9992
2 34651  86.2840 158.0821 0144004 336.0675  23.3863 14.25003844853098
Epoch: 2025-11-01T13:00Z
TLE epoch observation values (Epoch: 2025-11-01T13:00:44.949Z)
Latitude
-0.00003°
Longitude
-78.17596°
Altitude
716.748 km
Speed
7.546 km/s
True Right ascension
10h 32m 19s
True Declination
0° 00' 00"
Sunlit
Object was in daylight at epoch
Visualization orbit readout
Latitude
Unknown
Longitude
Unknown
Altitude
Unknown
Speed
Unknown
Apparent Right ascension
Unknown
Apparent Declination
Unknown
Sunlit
N/A
Visualization observer readout
Local Sidereal Time
16:07:37
Azimuth
Unknown
Elevation
Unknown
Doppler factor
Unknown
Orbital elements
Apogee altitude
908.905 km
Perigee altitude
702.012 km
Semi-major axis
7,183.596 km
Eccentricity
0.0144
Inclination
86.284°
RAAN
158.0821°
Arg. of periapsis
336.0675°
True anomaly
24.05228°
Mean anomaly
23.3863°
Eccentric anomaly
23.71818°
Mean motion
3.56476 °/min
Orbital period
100.99 mins
BSTAR
0.0021639
Loading maneuver chart data...
Computing Atmospheric mass density...

Documentation

Showing up to 5 results
|